| time (UTC) | temp C | wind direction | speed KPH | gust KPH | rain 1hr cm | rain 24hr cm | rain mn cm | humidity % | barometer mb |
| 20260506201614 | 13 | 212 | 1.6 | 6.4 | 0.10 | 0.53 | 0.53 | 1 | 1005.1 |
| 20260506200039 | 13 | 188 | 1.6 | 11.3 | 0.13 | 0.51 | 0.51 | 1 | 1005.2 |
| 20260506194626 | 13 | 205 | 1.6 | 9.7 | 0.10 | 0.46 | 0.46 | 1 | 1005.3 |
| 20260506193041 | 13 | 189 | 3.2 | 16.1 | 0.18 | 0.46 | 0.46 | 1 | 1005.5 |
| 20260506191632 | 13 | 198 | 3.2 | 8.0 | 0.18 | 0.43 | 0.43 | 1 | 1005.5 |
| 20260506190046 | 13 | 209 | 4.8 | 14.5 | 0.18 | 0.38 | 0.38 | 1 | 1005.5 |
| 20260506184504 | 14 | 188 | 3.2 | 9.7 | 0.18 | 0.36 | 0.36 | 1 | 1005.6 |
| 20260506183059 | 14 | 196 | 1.6 | 11.3 | 0.10 | 0.28 | 0.28 | 1 | 1005.8 |
| 20260506181524 | 14 | 178 | 3.2 | 9.7 | 0.10 | 0.25 | 0.25 | 1 | 1006.0 |
| 20260506180112 | 14 | 214 | 3.2 | 8.0 | 0.13 | 0.20 | 0.20 | 1 | 1006.2 |
| 20260506174532 | 14 | 189 | 3.2 | 12.9 | 0.15 | 0.18 | 0.18 | 1 | 1005.9 |
| 20260506173124 | 14 | 185 | 0.0 | 8.0 | 0.18 | 0.18 | 0.18 | 1 | 1006.0 |
| 20260506171548 | 15 | 178 | 3.2 | 6.4 | 0.15 | 0.15 | 0.15 | 1 | 1006.2 |
| 20260506170130 | 15 | 189 | 1.6 | 6.4 | 0.08 | 0.08 | 0.08 | 11 | 1006.9 |
| 20260506164553 | 15 | 189 | 0.0 | 6.4 | 0.03 | 0.03 | 0.03 | 29 | 1007.0 |
| 20260506163132 | 16 | 189 | 0.0 | 4.8 | 0.00 | 0.00 | 0.00 | 40 | 1006.8 |
| 20260506161552 | 16 | 199 | 1.6 | 11.3 | 0.00 | 0.00 | 0.00 | 52 | 1006.9 |
| 20260506160014 | 16 | 183 | 1.6 | 8.0 | 0.00 | 0.00 | 0.00 | 58 | 1007.1 |
| 20260506154558 | 16 | 199 | 1.6 | 6.4 | 0.00 | 0.00 | 0.00 | 60 | 1007.1 |
| 20260506153022 | 16 | 209 | 0.0 | 4.8 | 0.00 | 0.00 | 0.00 | 60 | 1007.4 |
| 20260506151610 | 16 | 209 | 1.6 | 8.0 | 0.00 | 0.00 | 0.00 | 58 | 1007.5 |
| 20260506150036 | 15 | 171 | 1.6 | 6.4 | 0.00 | 0.00 | 0.00 | 59 | 1007.8 |
| 20260506144624 | 16 | 171 | 0.0 | 6.4 | 0.00 | 0.00 | 0.00 | 59 | 1007.8 |
| 20260506141505 | 16 | 249 | 0.0 | 6.4 | 0.00 | 0.00 | 0.00 | 62 | 1007.8 |
| 20260506134513 | 16 | 208 | 0.0 | 8.0 | 0.00 | 0.00 | 0.00 | 63 | 1007.6 |
| 20260506133110 | 16 | 197 | 6.4 | 14.5 | 0.00 | 0.00 | 0.00 | 64 | 1007.3 |
| 20260506131535 | 16 | 182 | 1.6 | 16.1 | 0.00 | 0.00 | 0.00 | 62 | 1007.4 |
| 20260506130127 | 16 | 172 | 1.6 | 4.8 | 0.00 | 0.00 | 0.00 | 59 | 1007.6 |
| 20260506124539 | 15 | 254 | 1.6 | 6.4 | 0.00 | 0.00 | 0.00 | 56 | 1007.7 |
| 20260506123124 | 15 | 248 | 0.0 | 3.2 | 0.00 | 0.00 | 0.00 | 45 | 1008.0 |
| 20260506121534 | 14 | 182 | 0.0 | 11.3 | 0.00 | 0.00 | 0.00 | 32 | 1008.2 |
| 20260506120129 | 13 | 182 | 0.0 | 6.4 | 0.00 | 0.00 | 0.00 | 20 | 1008.2 |
| 20260506114541 | 13 | 211 | 1.6 | 9.7 | 0.00 | 0.00 | 0.00 | 18 | 1008.3 |
| 20260506113126 | 13 | 188 | 1.6 | 6.4 | 0.00 | 0.00 | 0.00 | 14 | 1008.0 |
| 20260506110010 | 13 | 200 | 1.6 | 9.7 | 0.00 | 0.00 | 0.00 | 15 | 1008.0 |
| 20260506104601 | 12 | 193 | 1.6 | 8.0 | 0.00 | 0.00 | 0.00 | 14 | 1008.3 |
| 20260506103026 | 12 | 186 | 1.6 | 8.0 | 0.00 | 0.00 | 0.00 | 17 | 1008.2 |
| 20260506101611 | 12 | 183 | 1.6 | 9.7 | 0.00 | 0.00 | 0.00 | 22 | 1008.1 |
| 20260506100034 | 12 | 194 | 1.6 | 4.8 | 0.00 | 0.00 | 0.00 | 26 | 1007.7 |
| 20260506094628 | 12 | 194 | 0.0 | 4.8 | 0.00 | 0.00 | 0.00 | 31 | 1007.7 |
| 20260506093051 | 12 | 183 | 0.0 | 4.8 | 0.00 | 0.00 | 0.00 | 37 | 1007.5 |
| 20260506091503 | 12 | 188 | 1.6 | 6.4 | 0.00 | 0.00 | 0.00 | 41 | 1007.7 |
| 20260506084509 | 13 | 189 | 0.0 | 6.4 | 0.00 | 0.00 | 0.00 | 52 | 1007.8 |
| 20260506083104 | 13 | 192 | 0.0 | 6.4 | 0.00 | 0.00 | 0.00 | 57 | 1007.8 |
| 20260506081517 | 13 | 186 | 0.0 | 4.8 | 0.00 | 0.00 | 0.00 | 60 | 1008.0 |
| 20260506073123 | 13 | 180 | 0.0 | 0.0 | 0.00 | 0.00 | 0.00 | 66 | 1007.8 |
| 20260506071548 | 14 | 180 | 0.0 | 1.6 | 0.00 | 0.00 | 0.00 | 67 | 1007.8 |
| 20260506070129 | 14 | 180 | 0.0 | 3.2 | 0.00 | 0.00 | 0.00 | 68 | 1007.9 |
| 20260506061541 | 15 | 180 | 0.0 | 3.2 | 0.00 | 0.00 | 0.00 | 69 | 1007.9 |
| 20260506043033 | 16 | 190 | 0.0 | 3.2 | 0.00 | 0.00 | 0.00 | 68 | 1008.4 |
| 20260506041629 | 16 | 190 | 0.0 | 4.8 | 0.00 | 0.00 | 0.00 | 67 | 1008.3 |
| 20260506040053 | 16 | 187 | 1.6 | 8.0 | 0.00 | 0.00 | 0.00 | 67 | 1008.4 |
| 20260506034545 | 16 | 184 | 0.0 | 4.8 | 0.00 | 0.00 | 0.00 | 66 | 1008.4 |
| 20260506033002 | 16 | 165 | 1.6 | 9.7 | 0.00 | 0.00 | 0.00 | 66 | 1008.5 |
| 20260506031600 | 16 | 196 | 1.6 | 9.7 | 0.00 | 0.00 | 0.00 | 65 | 1008.5 |
| 20260506030011 | 16 | 178 | 1.6 | 6.4 | 0.00 | 0.00 | 0.00 | 65 | 1008.6 |
| 20260506024558 | 17 | 174 | 1.6 | 6.4 | 0.00 | 0.00 | 0.00 | 64 | 1008.6 |
| 20260506023011 | 17 | 183 | 1.6 | 6.4 | 0.00 | 0.00 | 0.00 | 62 | 1008.6 |
| 20260506021616 | 17 | 182 | 0.0 | 4.8 | 0.00 | 0.00 | 0.00 | 62 | 1008.3 |
| 20260506020012 | 17 | 178 | 1.6 | 4.8 | 0.00 | 0.00 | 0.00 | 63 | 1008.4 |
| 20260506014604 | 17 | 177 | 1.6 | 8.0 | 0.00 | 0.00 | 0.00 | 62 | 1008.3 |
| 20260506013023 | 17 | 191 | 1.6 | 8.0 | 0.00 | 0.00 | 0.00 | 62 | 1008.3 |
| 20260506011614 | 17 | 182 | 0.0 | 6.4 | 0.00 | 0.00 | 0.00 | 62 | 1008.2 |
| 20260506010032 | 18 | 186 | 1.6 | 4.8 | 0.00 | 0.00 | 0.00 | 61 | 1008.1 |
| 20260506004630 | 18 | 215 | 0.0 | 9.7 | 0.00 | 0.00 | 0.00 | 60 | 1008.0 |
| 20260506001501 | 19 | 173 | 1.6 | 8.0 | 0.00 | 0.00 | 0.00 | 58 | 1007.4 |
| 20260506000049 | 19 | 180 | 3.2 | 9.7 | 0.00 | 0.00 | 0.00 | 57 | 1007.2 |
| 20260505234506 | 20 | 181 | 3.2 | 9.7 | 0.00 | 0.00 | 0.00 | 55 | 1006.9 |
| 20260505233100 | 20 | 197 | 1.6 | 8.0 | 0.00 | 0.00 | 0.00 | 54 | 1006.6 |
| 20260505231526 | 20 | 184 | 3.2 | 8.0 | 0.00 | 0.00 | 0.00 | 53 | 1006.5 |
| 20260505230115 | 21 | 187 | 1.6 | 11.3 | 0.00 | 0.00 | 0.00 | 52 | 1006.3 |
| 20260505224532 | 21 | 193 | 4.8 | 11.3 | 0.00 | 0.00 | 0.00 | 51 | 1006.1 |
| 20260505223120 | 21 | 235 | 4.8 | 12.9 | 0.00 | 0.00 | 0.00 | 50 | 1006.0 |
| 20260505221551 | 22 | 188 | 3.2 | 14.5 | 0.00 | 0.00 | 0.00 | 48 | 1005.8 |
| 20260505220147 | 22 | 176 | 6.4 | 14.5 | 0.00 | 0.00 | 0.00 | 46 | 1005.7 |
| 20260505214609 | 23 | 183 | 6.4 | 14.5 | 0.00 | 0.00 | 0.00 | 45 | 1005.8 |
| 20260505213006 | 23 | 195 | 3.2 | 22.5 | 0.00 | 0.00 | 0.00 | 45 | 1005.6 |
| 20260505210014 | 23 | 240 | 3.2 | 22.5 | 0.00 | 0.00 | 0.00 | 44 | 1005.7 |
| 20260505204604 | 23 | 222 | 6.4 | 25.7 | 0.00 | 0.00 | 0.00 | 43 | 1005.7 |
| 20260505203024 | 24 | 191 | 4.8 | 16.1 | 0.00 | 0.00 | 0.00 | 41 | 1005.4 |